Погода в Иваново

Беларусь     52°08′49″N   25°32′06″E
темп.,
°C
ветер,
м/с
пор.,
м/с
влажн.,
%
обл.,
%
осадки,
мм/ч
давл.,
гПа
погр.,
м
23 апреля, пт
пт2300:00+3зюз497711 0.0 1015174
03:00+2зюз512803 0.0 1015329
06:00+1зюз411840 0.0 1016303
09:00+4з610645 0.0 1016823
12:00+6зсз7857100 0.1 10171661
15:00+8з7114988 0.9 10162242
18:00+7зсз7105680 0.5 10171689
21:00+2зсз35710 0.8 101873
24 апреля, сб
сб2400:00+1зсз3875100 0.0 1019171
03:000зсз410753 0.0 1019274
06:00−1зсз511785 0.0 1019315
09:00+3зсз69605 0.0 1020962
12:00+7зсз6844100 0.1 10202454
15:00+8з6838100 0.1 10192578
18:00+7зсз7954100 0.3 10191683
21:00+2ссз22817 0.6 102013
25 апреля, вс
вс2500:00+1з3483100 0.0 101979
03:000з3498100 1.3 1019146
06:00−2зсз38949 0.0 1019247
09:00+1зсз58765 0.0 1020641
12:00+4зсз566196 0.2 10201341
15:00+7з6750100 0.4 10192052
18:00+6з685375 0.3 10181564
21:00+2зюз487672 0.4 1018150
26 апреля, пн
пн2600:000з368747 0.1 101897
03:00−1зсз368799 0.1 1018136
06:00−2зсз37918 0.0 1018156
09:00+3зсз57645 0.0 1018817
12:00+6зсз5746100 0.1 10172049
15:00+8з5741100 0.1 10162160
18:00+7з464684 0.1 10141567
21:00+4зюз226188 0.1 101427
27 апреля, вт
вт2700:00+2зюз3581100 0.0 101492
03:000з22934 0.1 101430
06:00−1сз22925 0.0 101527
09:00+4сз23690 0.0 1015419
12:00+8зсз22485 0.0 10151397
15:00+10з234414 0.0 10131596
18:00+10зюз124580 0.0 10131543
21:00+6в2259100 0.0 101319